Wind_Speed
19 20 21 23 22 21 19 16 15 16 17 18 16 18 18 22 28 19 13 20 17 13 10 11 13 19 26
20 22 22 21 23 21 17 14 16 15 16 16 15 16 19 22 22 11 9 16 17 11 7 9 12 18 23
20 22 22 20 20 18 16 16 15 15 14 16 15 16 19 21 16 8 6 11 5 11 6 8 14 13 15
21 21 21 20 18 18 16 15 16 14 15 14 15 16 17 19 15 7 3 5 12 13 6 12 18 20 14
20 19 19 17 15 15 13 13 14 13 13 14 15 15 16 15 12 7 6 4 4 14 13 18 10 11 14
18 16 14 12 10 12 11 11 12 10 11 13 14 14 14 13 11 7 6 7 4 5 13 15 13 18 25
15 12 10 8 8 9 9 10 12 11 12 14 13 11 13 12 10 9 7 7 10 9 9 10 10 7 13
13 14 11 9 10 9 9 10 11 12 12 13 12 12 13 12 10 9 8 8 10 12 12 11 11 12 12
11 13 11 10 10 11 10 10 11 12 12 13 11 12 12 12 10 9 7 7 9 14 14 14 15 15 17
12 12 12 10 12 12 11 11 12 10 11 13 13 10 5 6 10 8 7 6 6 10 13 15 15 15 16
10 11 11 11 11 11 11 12 13 13 15 7 4 5 8 10 7 8 7 8 7 7 7 9 10 12 15
11 10 10 9 9 10 10 11 13 13 13 10 10 8 8 9 7 4 6 7 7 9 9 10 10 10 10
9 10 10 9 8 9 10 9 10 10 10 9 10 10 8 8 7 4 3 4 8 11 11 10 10 10 11
9 9 8 8 8 9 9 8 8 8 8 9 10 10 10 9 8 7 7 4 3 8 11 12 12 14 15
8 7 7 7 8 9 8 8 7 6 6 7 8 10 11 12 11 9 9 10 10 12 11 11 13 13 14
9 7 7 8 8 8 8 8 8 7 8 9 9 10 11 9 11 10 12 12 12 14 15 15 13 13 13
9 9 8 9 9 8 8 8 7 8 9 10 12 11 13 13 12 12 11 9 11 13 14 15 13 13 17
Wind_Direction
273 274 278 285 293 295 297 291 289 291 297 297 295 302 299 314 318 313 309 320 317 296 271 255 222 206 206
276 282 286 286 288 286 285 284 280 284 292 292 289 292 299 315 319 304 323 335 319 307 273 229 207 198 204
282 284 287 290 293 297 286 280 280 281 280 289 294 297 306 311 315 294 322 10 23 326 242 186 186 183 182
281 283 287 286 293 297 283 275 275 278 280 282 285 293 303 309 310 290 258 359 48 107 143 178 182 159 148
279 281 282 287 297 293 280 276 281 282 281 279 282 290 294 299 301 291 236 240 55 88 121 140 163 199 188
278 276 278 285 288 282 276 277 286 286 283 280 285 286 285 287 290 281 251 216 209 130 114 119 136 136 146
277 278 270 270 280 275 270 272 277 283 283 285 285 284 289 289 279 274 261 222 211 209 194 163 166 185 183
269 269 269 261 263 268 267 264 272 275 275 280 284 282 279 292 280 269 255 241 220 217 217 205 191 185 188
251 258 264 262 261 257 260 269 278 272 274 284 283 280 277 279 274 267 259 249 233 217 214 218 221 213 201
252 257 264 257 255 251 254 259 262 270 280 271 270 275 294 294 256 253 246 239 226 218 209 211 218 220 217
252 257 260 263 261 259 249 251 256 256 267 271 307 305 258 278 331 247 237 230 221 217 213 217 209 211 214
254 253 256 253 253 260 254 253 255 259 263 246 267 285 276 272 275 340 244 242 242 229 223 215 216 208 211
255 260 259 253 252 258 262 257 258 259 261 257 258 262 264 271 266 275 290 245 248 240 233 227 227 230 233
257 252 258 259 256 251 254 257 257 257 257 258 256 255 256 259 264 255 245 254 258 252 247 245 239 235 233
249 249 254 259 252 250 251 255 257 254 252 252 255 255 256 259 259 255 252 254 258 259 254 248 240 242 249
253 254 250 248 250 250 250 252 255 250 247 253 253 257 261 263 270 261 258 257 254 253 256 257 248 252 250
248 246 245 244 248 247 247 250 253 257 253 251 259 264 273 270 266 266 269 265 264 260 259 261 255 238 243
Height
1533 1532 1531 1530 1528 1527 1527 1527 1527 1525 1524 1520 1520 1519 1517 1515 1511 1510 1505 1496 1495 1494 1492 1493 1494 1498 1502
1526 1527 1524 1523 1523 1522 1522 1520 1522 1520 1518 1516 1515 1516 1511 1509 1508 1506 1503 1497 1493 1493 1490 1492 1495 1498 1502
1523 1521 1520 1520 1520 1518 1520 1520 1518 1515 1510 1514 1514 1512 1514 1510 1504 1503 1505 1499 1495 1493 1491 1492 1495 1498 1503
1517 1515 1514 1517 1515 1515 1516 1517 1514 1512 1510 1508 1509 1509 1509 1510 1506 1502 1502 1502 1499 1496 1493 1494 1498 1501 1502
1512 1512 1512 1512 1511 1514 1512 1511 1513 1510 1508 1508 1506 1505 1506 1503 1504 1501 1501 1502 1503 1500 1500 1499 1498 1500 1503
1506 1504 1507 1507 1508 1509 1509 1505 1508 1507 1503 1506 1502 1503 1501 1502 1502 1500 1500 1502 1504 1504 1505 1506 1506 1502 1507
1503 1503 1500 1503 1505 1502 1503 1504 1504 1502 1502 1504 1501 1500 1502 1500 1499 1499 1498 1500 1503 1505 1505 1507 1509 1512 1515
1501 1504 1499 1499 1501 1499 1499 1497 1498 1500 1498 1500 1498 1497 1498 1497 1497 1497 1496 1498 1501 1503 1505 1506 1508 1509 1513
1494 1499 1499 1497 1497 1496 1495 1496 1498 1499 1499 1495 1494 1495 1494 1495 1495 1494 1494 1496 1499 1501 1502 1504 1507 1508 1512
1493 1492 1495 1493 1494 1492 1491 1491 1496 1496 1496 1493 1491 1492 1492 1492 1492 1492 1492 1494 1496 1499 1501 1502 1503 1505 1508
1486 1488 1491 1492 1492 1488 1487 1490 1493 1493 1492 1491 1489 1490 1491 1492 1491 1490 1492 1494 1495 1496 1498 1500 1501 1503 1505
1484 1483 1485 1485 1486 1487 1485 1484 1489 1488 1487 1488 1488 1489 1490 1490 1491 1490 1492 1494 1495 1497 1498 1498 1499 1500 1502
1479 1480 1484 1483 1479 1484 1487 1482 1484 1484 1484 1485 1486 1487 1488 1489 1489 1491 1492 1493 1494 1496 1496 1497 1497 1499 1501
1476 1475 1478 1480 1479 1481 1480 1480 1480 1482 1481 1482 1483 1485 1486 1487 1488 1490 1491 1492 1492 1493 1494 1495 1496 1497 1498
1472 1475 1475 1476 1477 1477 1477 1477 1478 1478 1479 1480 1481 1482 1484 1485 1486 1488 1489 1489 1490 1491 1491 1492 1493 1494 1495
1468 1470 1471 1473 1474 1474 1474 1474 1475 1475 1477 1478 1479 1480 1481 1483 1484 1485 1486 1487 1487 1487 1487 1488 1489 1491 1491
1464 1467 1468 1470 1471 1471 1471 1471 1472 1473 1474 1475 1477 1479 1480 1480 1481 1481 1482 1483 1483 1484 1484 1484 1485 1487 1487